Terminal Aerodrome Forecast
Issued by NWS Houston/Galveston TX

Home | Current Version | Previous Version | Text Only | Print | Product List | Glossary On
Versions: 1 2 3 4 5 6 7 8 9 10 11 12 13 14 15 16 17 18 19 20 21 22 23 24 25 26 27 28 29 30 31 32 33 34 35 36 37 38 39 40 41 42 43 44 45 46
000
FTUS44 KHGX 042340
TAFHOU
TAF
KHOU 042340Z 0500/0524 17005KT P6SM FEW040 SCT100 BKN250
     FM050200 VRB03KT P6SM SKC
     FM050800 16004KT P6SM SCT015
     FM051600 17007KT P6SM VCSH SCT050 PROB30 0518/0522 4SM SHRA
      BKN040=

USA.gov is the U.S. government's official web portal to all federal, state and local government web resources and services.